STARLINK-32399, 61627

Orbit data source: Space-Track

STARLINK-32399, 61627 is a payload satellite owned by SpaceX/Seattle (US) in LEO that was launched on Wed, 23 Oct 2024 UTC via an FALCON 9 launch vehicle from the Air Force Eastern Test Range (AFETR). Payload-class satellites include a variety of spacecraft equipped with specific instruments for various scientific and technological missions. These include communications satellites like Starlink; space stations such as the ISS; scientific satellites like the Hubble; Earth observation satellites from companies like Planet Labs, Umbra, and HawkEye 360; GPS; miniature CubeSats for education and research; and military/defense satellites.

Loading next visibility...
Identifier
61627, 2024-191G
Orbit
LEO
Country
Flag of USUS
Related business
Manufacturer
SpaceX/Seattle
Mission
Operational Commercial Communications
Bus & Motor
STARLINK V2M, Unknown motor
Mass
730 kg wet, ~700 kg dry
Launch date (UTC)
2024-10-23 (1 year ago)
Launch vehicle
FALCON 9
Launch site
Air Force Eastern Test Range (AFETR)
Object type
Payload
Rocket body
Debris
Shape & HBR
Box + 2 Pan, 17.7 m
Radar Cross Section
33.884 m², Large (>1 m²)

Expand to show TLE details & history
Last TLE update: 10 hours ago

TLE from 10 hours ago
0 STARLINK-32399
1 61627U 24191G   25342.61564481  .00000257  00000-0  18868-4 0  9999
2 61627  43.0033 301.4148 0001222 271.0908  88.9804 15.27575350 63693
Epoch: 2025-12-08T14:46Z
TLE epoch observation values (Epoch: 2025-12-08T14:46:31.711Z)
Latitude
Longitude
2.17054°
Altitude
482.824 km
Speed
7.626 km/s
True Right ascension
20h 05m 39s
True Declination
0° 00' 00"
Sunlit
Object was in daylight at epoch
Visualization orbit readout
Latitude
Unknown
Longitude
Unknown
Altitude
Unknown
Speed
Unknown
Apparent Right ascension
Unknown
Apparent Declination
Unknown
Sunlit
N/A
Visualization observer readout
Local Sidereal Time
22:40:42
Azimuth
Unknown
Elevation
Unknown
Doppler factor
Unknown
Orbital elements
Apogee altitude
485.846 km
Perigee altitude
484.169 km
Semi-major axis
6,863.145 km
Eccentricity
0.00012
Inclination
43.0033°
RAAN
301.4148°
Arg. of periapsis
271.0908°
True anomaly
88.9944°
Mean anomaly
88.9804°
Eccentric anomaly
88.9874°
Mean motion
3.81732 °/min
Orbital period
94.31 mins
BSTAR
0.000018868
Loading maneuver chart data...
Computing Atmospheric mass density...
Loading historical data...
Loading historical data...
Loading historical data...
Loading historical data...
Loading historical data...
Loading historical data...
Loading historical data...

Documentation

Showing up to 5 results
|